Location: Newark
(34.3481°N, 134.0494°E)
Time: 15:29:51
(UTC+00:00)

Vanguard 3 - Pass Details

Date: 28 January 2020
Orbit: 508 x 3263 km, 33.3° (Epoch: 23 February)

Event Time Altitude Azimuth Distance (km) Brightness Sun altitude
Rises 03:48:47 0° 186° (S) 5,633 12.4 36.7°
Reaches altitude 10° 03:53:51 10° 169° (S) 5,094 12.3 36.6°
Maximum altitude 04:03:44 20° 130° (SE) 4,987 11.7 36.1°
Drops below altitude 10° 04:15:21 10° 93° (E) 6,173 11.6 35.5°
Sets 04:22:23 0° 79° (E) 7,219 11.7 35.0°
